Flag for U.S.A. Weather past 2 weeks in Cape Coral, Florida, U.S.A.

Now
93 °F

Scattered clouds.


Feels Like: 97 °F
Forecast: 75 / 91 °F
Wind: 6 mph from East

Location: Page Field

Current Time: Sep 2, 2014 at 4:02:18 PM

Latest Report: Sep 2, 2014 at 2:53 PM


Visibility: 10 mi

Pressure: 30.01 "Hg

Humidity: 42%

Dew point: 67 °F

Location of Cape CoralLocation

Historic Weather in Cape Coral — Graph

°F

Cape Coral temperature yesterday

Maximum temperature yesterday: 95 °F (at 3:53 PM)
Minimum temperature yesterday: 76 °F (at 2:53 AM)
Average temperature yesterday: 81 °F

Past Weeks' High & Low Weather Summary

 TemperatureHumidityPressure
High97 °F (Aug 24, 2:53 PM)100% (Aug 28, 9:53 PM)30.13 "Hg (Aug 28, 9:53 PM)
Low71 °F (Aug 27, 3:53 AM)38% (Aug 27, 4:53 PM)29.74 "Hg (Aug 25, 4:53 PM)
Average83 °F74%29.99 "Hg
* Reported Aug 18 1:53 PM — Sep 2 1:53 PM, Cape Coral, Weather by CustomWeather, © 2014

Note: Actual official high and low records may vary slightly from our data, if they occured in-between our weather recording intervals... More about our weather records

Advertising

Cape Coral weather history for previous 24 hours

 ConditionsComfort  
Time TempWeatherWind HumidityBarometerVisibility
1:53 PM
Sep 2
90 °FScattered clouds.8 mph52%30.04 "Hg10 mi
12:53 PM91 °FPassing clouds.7 mph52%30.06 "Hg10 mi
11:53 AM89 °FScattered clouds.5 mph59%30.08 "Hg10 mi
10:53 AM86 °FPassing clouds.9 mph65%30.08 "Hg10 mi
9:53 AM80 °FSunny.9 mph85%30.08 "Hg10 mi
8:53 AM77 °FSunny.6 mph94%30.06 "Hg10 mi
7:53 AM75 °FClear.5 mph94%30.04 "Hg10 mi
6:53 AM74 °FClear.3 mph94%30.03 "Hg10 mi
5:53 AM74 °FClear.5 mph94%30.01 "Hg10 mi
4:53 AM74 °FClear.No wind94%30.02 "Hg10 mi
3:53 AM74 °FClear.No wind97%30.03 "Hg10 mi
2:53 AM75 °FClear.3 mph94%30.05 "Hg10 mi
1:53 AM75 °FClear.No wind94%30.07 "Hg10 mi
12:53 AM75 °FClear.5 mph94%30.09 "Hg10 mi
11:53 PM
Sep 1
76 °FClear.5 mph91%30.09 "Hg10 mi
10:53 PM76 °FClear.5 mph91%30.09 "Hg10 mi
9:53 PM78 °FClear.No wind82%30.08 "Hg10 mi
8:53 PM79 °FPassing clouds.No wind77%30.06 "Hg10 mi
7:53 PM79 °FSunny.3 mph77%30.04 "Hg10 mi
6:53 PM80 °FScattered clouds.No wind74%30.05 "Hg10 mi
5:53 PM80 °FSunny.6 mph69%30.05 "Hg10 mi
5:04 PM80 °FThundershowers. Passing clouds.14 mph71%30.04 "Hg10 mi
4:53 PM81 °FThunderstorms. Broken clouds.9 mph72%30.04 "Hg10 mi
Weather by CustomWeather, © 2014

See weather overviewHow to use our weather pages